Wind_Speed
14 7 3 4 5 4 3 2 3 3 3 4 4 6 6 8 9 9 9 10 11 12 14 15 16 18 19 20 21 23 24 25 27 31 33 36 39 36 41 43 44 44 44 45 47
10 2 5 5 3 2 1 2 2 3 4 5 5 6 6 7 8 9 10 11 12 14 15 16 17 19 20 21 22 24 25 26 28 31 34 35 38 39 41 44 47 50 51 51 52
3 2 5 4 3 2 3 3 4 5 6 6 6 7 9 9 9 9 9 10 11 12 13 15 17 18 20 23 25 28 30 32 34 36 39 42 46 46 47 49 52 55 57 60 59
1 2 4 4 2 2 3 4 5 6 7 8 8 9 9 10 10 12 13 14 15 17 19 20 23 25 27 30 33 35 38 40 42 43 45 48 51 54 55 55 58 59 61 63 65
2 3 3 2 1 2 3 4 4 5 6 7 8 9 9 10 11 14 17 19 21 23 25 27 29 31 34 36 37 40 42 45 47 48 50 54 56 57 58 59 62 61 62 63 64
3 4 4 2 1 0 2 2 2 4 7 8 9 10 13 16 18 21 24 27 29 31 32 34 36 37 40 41 43 45 46 47 49 51 51 51 51 51 51 51 55 57 60 62 65
5 3 2 2 2 2 1 2 3 6 8 9 12 15 18 21 25 28 30 31 32 33 34 35 35 37 39 38 38 39 40 41 42 45 47 47 50 52 54 57 62 65 68 69 72
4 3 4 4 4 2 2 3 6 9 9 12 18 21 24 27 29 29 27 26 27 27 27 28 28 28 30 30 32 33 36 39 44 50 54 58 60 60 62 63 65 69 72 74 76
5 5 5 4 3 2 3 6 9 11 17 21 24 28 33 33 30 29 29 29 33 34 35 35 36 36 37 40 41 43 44 45 47 52 57 59 66 68 70 71 75 79 81 83 84
6 6 5 4 3 2 6 10 15 18 22 26 30 34 35 34 35 34 35 36 38 40 41 41 43 43 44 48 50 52 53 55 57 60 66 66 70 73 76 76 81 85 88 91 95
7 7 6 5 3 2 7 13 17 21 25 30 34 32 32 33 32 34 35 37 41 39 43 46 47 49 50 53 54 57 57 61 66 67 68 72 76 79 82 85 86 88 92 99 105
11 9 9 6 4 3 8 13 19 22 27 33 31 32 29 33 38 37 37 37 37 41 41 44 47 49 53 56 60 60 59 59 63 68 70 73 76 76 82 88 92 98 101 104 109
13 12 11 8 4 3 8 14 18 23 27 29 30 31 31 33 34 40 42 44 45 47 50 53 54 54 55 54 55 51 51 51 58 57 60 65 73 75 77 81 92 99 103 108 112
14 14 13 10 6 5 9 14 16 18 22 22 30 32 31 36 39 44 47 54 51 54 58 58 56 57 56 56 56 54 59 57 62 63 70 69 79 76 84 86 83 85 89 90 89
17 17 15 13 8 6 9 12 15 17 17 25 29 32 32 36 43 47 45 49 53 55 57 59 60 56 65 66 61 62 62 64 63 64 69 93 85 83 96 87 80 82 89 91 90
19 20 17 16 12 10 11 12 14 17 18 23 31 33 37 43 48 51 49 50 55 56 60 59 63 65 69 72 64 65 71 80 77 78 85 92 103 98 109 104 96 93 92 91 90
22 21 19 18 14 13 14 14 16 20 20 27 33 37 43 46 48 48 50 50 51 54 54 61 64 69 65 64 69 68 70 80 89 89 101 106 114 119 117 105 98 96 95 97 99
24 24 22 21 18 17 18 17 18 18 24 29 31 38 41 43 44 47 47 51 48 52 60 65 70 68 68 69 73 80 86 91 99 101 106 118 121 126 122 109 99 97 97 102 108
26 25 24 23 20 22 22 19 21 21 27 32 35 39 39 41 44 52 53 52 50 64 65 70 70 67 71 77 83 86 94 102 107 111 112 120 129 135 119 116 107 100 98 105 105
27 26 26 25 23 25 25 24 23 27 30 33 36 43 46 44 49 52 51 52 55 60 64 66 68 71 77 84 88 92 101 109 117 124 116 123 135 136 114 106 98 94 97 95 92
28 26 25 23 25 26 28 28 27 28 32 37 40 48 47 45 49 50 52 54 59 60 69 67 71 75 85 86 89 96 104 114 120 131 129 138 146 135 115 107 106 105 98 88 81
26 27 25 24 25 27 31 31 30 33 38 42 49 45 43 50 48 49 51 59 60 66 64 70 79 82 86 91 98 99 107 117 125 133 134 136 148 144 116 110 109 103 93 84 78
28 27 27 26 28 31 33 36 36 39 43 47 45 45 52 54 49 53 55 58 58 63 67 78 79 83 91 96 102 108 111 119 127 136 136 145 154 139 117 109 104 97 88 79 68
28 30 30 30 31 34 37 38 42 45 45 43 48 49 52 48 54 59 62 63 65 67 70 73 81 84 96 102 103 113 116 120 129 133 138 146 161 125 109 109 102 89 79 69 58
30 29 31 32 33 35 37 38 43 44 43 47 50 50 53 59 64 66 65 64 68 71 69 77 78 90 97 103 107 113 117 124 132 140 147 152 156 136 116 105 95 80 68 58 54
27 31 33 34 36 39 37 37 45 45 43 50 52 52 58 63 64 67 71 69 71 72 70 74 84 92 102 106 110 115 119 126 139 139 150 154 162 148 114 98 86 76 63 55 52
31 34 36 35 37 41 37 44 46 46 47 49 52 54 59 63 63 65 75 70 73 76 73 80 86 95 100 106 112 115 121 129 137 140 155 165 146 125 107 86 74 73 67 55 46
Wind_Direction
317 311 329 324 315 315 327 332 329 326 326 328 324 328 337 340 339 336 326 317 313 312 310 308 307 304 300 295 293 290 289 286 284 284 284 284 284 282 280 281 280 275 270 270 269
309 315 322 318 294 311 320 344 342 350 350 351 359 357 347 336 331 334 331 327 323 319 316 313 311 308 306 305 305 301 299 296 291 288 285 284 284 285 283 283 283 283 281 277 274
250 307 318 304 312 350 6 19 24 13 1 355 355 349 337 332 326 329 329 327 326 324 319 313 308 304 301 300 298 297 294 292 291 291 292 291 289 287 287 288 288 287 285 283 280
206 321 288 304 349 40 47 28 5 353 347 338 338 336 332 336 338 335 335 332 327 321 314 310 308 306 305 302 301 298 296 296 294 294 292 290 290 290 290 289 287 286 285 285 285
288 286 285 290 78 62 18 355 348 340 329 329 332 338 342 341 339 336 334 329 323 317 313 311 306 301 298 296 295 294 293 293 293 291 289 290 291 290 291 290 289 289 288 288 287
268 278 249 170 146 289 355 355 2 330 331 344 347 348 345 342 337 332 326 321 316 310 307 303 300 297 295 295 295 295 295 294 294 294 293 294 294 296 296 294 291 290 289 288 286
261 253 211 172 226 278 321 2 342 349 343 344 347 346 344 337 330 325 321 317 312 310 308 307 306 303 301 301 301 302 303 304 302 299 298 296 294 292 290 289 290 290 289 287 286
266 243 211 194 232 278 350 357 344 340 336 346 341 338 334 332 327 330 330 329 323 320 317 316 315 312 309 308 307 305 302 301 302 300 300 301 296 294 292 289 287 284 282 281 280
260 232 188 220 268 338 350 341 341 334 342 339 338 337 337 339 342 341 340 341 340 337 335 330 323 322 317 313 310 306 302 300 298 297 295 295 293 292 290 288 285 281 278 277 275
252 202 207 232 277 338 353 349 343 336 339 343 343 346 349 351 352 349 346 345 345 342 342 334 330 324 321 319 316 310 306 302 299 296 294 292 288 288 287 287 285 283 281 280 278
222 200 223 235 255 338 2 353 343 338 343 347 353 357 354 353 349 349 347 349 348 343 343 340 335 335 331 326 323 320 317 312 307 302 295 291 288 288 287 283 281 279 279 279 277
198 207 226 237 266 350 355 347 337 340 346 356 2 4 355 349 354 356 352 346 346 346 342 338 336 333 330 327 326 323 320 309 301 294 292 289 288 290 288 285 282 280 278 278 279
201 211 226 245 255 326 347 346 343 356 360 7 12 9 357 349 352 352 350 347 342 340 339 337 336 334 332 329 325 323 320 309 305 298 308 302 296 291 297 299 291 286 286 284 282
206 216 231 237 253 316 348 340 346 354 356 6 0 358 348 347 347 346 346 346 341 344 341 339 337 335 333 327 321 320 323 312 312 322 328 324 320 319 320 311 303 295 290 285 282
211 220 232 236 234 296 329 323 338 343 351 352 349 349 351 348 345 344 342 344 343 345 343 341 337 330 329 334 329 320 332 327 325 333 337 341 332 330 330 316 307 301 296 294 293
214 224 238 238 254 287 309 308 324 329 327 337 335 339 337 337 341 340 340 344 345 344 344 335 332 336 334 333 334 329 343 345 346 344 344 342 343 338 339 334 326 319 314 308 302
220 228 240 246 261 279 288 297 314 314 319 321 321 329 333 335 334 337 340 341 342 345 340 337 337 339 338 346 343 343 333 344 350 346 346 343 342 343 342 335 327 322 317 313 307
223 233 246 247 265 274 293 290 306 312 317 322 328 328 329 330 333 335 338 340 339 335 340 338 339 341 344 346 349 349 353 351 350 347 351 347 342 341 341 336 330 324 317 312 307
227 237 248 255 265 279 293 295 304 309 314 314 317 321 327 330 329 333 337 339 334 334 335 335 340 343 350 351 353 355 352 353 349 349 350 349 347 344 341 338 334 326 316 307 308
231 241 250 257 266 283 293 291 296 307 309 314 318 325 329 328 329 335 336 336 331 333 333 333 334 344 347 352 352 354 352 352 349 348 349 350 346 344 340 336 329 318 312 313 312
234 247 249 256 271 284 292 300 305 303 309 312 316 325 328 328 334 333 335 336 337 334 334 332 333 347 351 351 351 352 350 350 349 349 349 347 350 344 338 333 325 322 322 321 319
241 246 252 261 276 288 294 299 305 299 302 312 323 327 328 329 333 337 336 332 333 335 336 334 329 332 344 350 352 351 351 351 348 346 348 344 349 345 338 333 325 325 325 324 322
249 245 253 265 277 286 287 291 297 303 310 321 324 329 330 330 331 335 334 336 333 332 331 331 330 337 344 349 350 351 349 348 345 344 347 345 350 347 337 329 328 329 326 326 325
245 252 260 268 275 281 288 294 301 307 319 324 328 329 332 336 335 338 338 334 334 334 336 335 335 339 347 348 350 353 352 346 346 344 348 345 351 343 337 333 330 330 328 329 328
247 257 262 266 272 276 286 299 301 311 313 324 333 334 333 337 341 342 337 335 335 338 331 334 344 348 346 348 351 352 351 347 344 347 348 347 350 345 338 334 332 330 332 333 334
248 255 265 271 274 283 291 295 301 307 315 326 327 332 331 336 341 340 342 338 337 334 332 333 343 347 346 347 350 351 349 346 346 348 349 351 349 346 337 337 335 332 337 339 340
250 257 264 270 279 285 296 294 298 306 314 321 327 329 333 335 339 338 338 340 337 335 335 341 344 348 346 348 350 350 349 347 345 350 351 349 348 343 339 341 339 338 340 344 346
Height
10905 10904 10904 10904 10904 10903 10903 10902 10901 10901 10900 10899 10899 10898 10898 10898 10897 10896 10895 10893 10891 10889 10887 10885 10884 10882 10880 10878 10875 10872 10870 10868 10865 10860 10857 10852 10848 10849 10839 10835 10832 10831 10829 10825 10822
10904 10903 10903 10903 10903 10902 10902 10901 10901 10900 10900 10899 10899 10899 10898 10897 10896 10894 10893 10891 10890 10888 10886 10884 10882 10879 10877 10875 10872 10869 10865 10863 10858 10853 10849 10845 10840 10837 10833 10828 10822 10818 10816 10815 10813
10902 10903 10903 10902 10902 10902 10901 10901 10901 10900 10900 10898 10898 10898 10897 10896 10895 10893 10891 10890 10888 10886 10884 10882 10879 10877 10875 10871 10868 10864 10860 10856 10851 10848 10843 10837 10831 10829 10826 10822 10815 10809 10803 10797 10797
10901 10902 10902 10902 10902 10902 10901 10901 10901 10900 10899 10898 10897 10897 10896 10894 10893 10892 10890 10888 10885 10883 10880 10877 10875 10872 10869 10865 10860 10856 10852 10849 10845 10842 10835 10829 10823 10818 10816 10812 10805 10800 10793 10787 10783
10901 10902 10902 10902 10902 10902 10902 10902 10901 10900 10899 10898 10897 10896 10895 10894 10892 10891 10889 10886 10883 10880 10877 10874 10871 10867 10863 10859 10855 10849 10845 10840 10835 10831 10825 10818 10812 10808 10804 10798 10789 10786 10781 10774 10767
10901 10902 10901 10902 10902 10902 10902 10902 10901 10900 10899 10898 10897 10896 10895 10893 10891 10889 10885 10881 10878 10874 10871 10867 10863 10859 10855 10851 10846 10840 10835 10830 10824 10819 10814 10809 10804 10797 10790 10784 10775 10769 10763 10757 10749
10901 10901 10901 10902 10902 10902 10902 10901 10900 10900 10898 10897 10897 10896 10894 10892 10889 10885 10881 10876 10872 10868 10864 10860 10856 10852 10847 10842 10837 10832 10826 10820 10814 10807 10801 10797 10791 10785 10780 10774 10763 10755 10746 10739 10730
10900 10900 10901 10902 10902 10902 10902 10901 10900 10898 10898 10897 10896 10894 10891 10888 10884 10880 10875 10871 10866 10862 10858 10854 10849 10844 10839 10835 10830 10825 10818 10811 10804 10793 10786 10779 10772 10771 10764 10760 10753 10742 10729 10720 10714
10899 10900 10901 10901 10901 10901 10901 10900 10899 10898 10896 10895 10893 10890 10886 10882 10878 10874 10871 10866 10861 10857 10853 10849 10844 10839 10834 10829 10824 10818 10812 10805 10798 10786 10778 10770 10753 10750 10743 10738 10730 10720 10711 10703 10697
10898 10899 10900 10900 10900 10900 10899 10898 10896 10895 10894 10893 10890 10886 10881 10877 10873 10868 10865 10861 10857 10852 10848 10843 10839 10834 10829 10823 10816 10809 10803 10796 10791 10781 10763 10759 10741 10733 10723 10715 10705 10694 10683 10673 10662
10897 10898 10899 10899 10900 10899 10899 10897 10895 10893 10892 10890 10886 10882 10877 10873 10869 10864 10860 10856 10851 10847 10842 10836 10830 10826 10822 10814 10808 10801 10794 10784 10774 10765 10756 10743 10729 10719 10706 10691 10676 10664 10654 10641 10627
10896 10897 10897 10898 10899 10898 10898 10896 10894 10892 10889 10887 10883 10879 10875 10870 10866 10860 10856 10852 10848 10843 10839 10834 10829 10824 10816 10807 10798 10788 10782 10774 10761 10745 10737 10725 10716 10706 10690 10674 10658 10642 10628 10615 10603
10895 10896 10896 10897 10897 10897 10896 10895 10892 10890 10887 10885 10882 10879 10874 10868 10864 10859 10853 10848 10845 10839 10834 10829 10822 10814 10806 10796 10785 10776 10766 10757 10749 10738 10721 10705 10697 10687 10670 10653 10636 10619 10603 10586 10568
10893 10894 10894 10895 10896 10895 10894 10893 10891 10888 10887 10885 10881 10877 10873 10867 10862 10856 10849 10844 10837 10835 10828 10824 10817 10808 10800 10790 10781 10769 10756 10744 10731 10721 10704 10688 10668 10658 10643 10623 10607 10588 10569 10551 10533
10890 10891 10892 10892 10894 10893 10893 10891 10889 10887 10885 10883 10879 10874 10870 10865 10859 10852 10846 10839 10832 10826 10820 10811 10806 10797 10789 10779 10769 10758 10744 10732 10717 10704 10686 10666 10648 10635 10615 10595 10577 10555 10534 10514 10496
10887 10888 10889 10890 10891 10891 10890 10888 10887 10885 10882 10879 10876 10871 10865 10861 10854 10846 10840 10835 10826 10819 10810 10802 10791 10781 10771 10762 10753 10742 10725 10712 10700 10686 10674 10648 10627 10606 10580 10554 10536 10516 10494 10475 10458
10883 10884 10885 10886 10887 10888 10887 10886 10885 10882 10880 10877 10873 10867 10861 10855 10849 10841 10834 10828 10821 10812 10801 10792 10783 10773 10760 10747 10736 10724 10710 10701 10685 10669 10652 10624 10599 10577 10552 10525 10501 10479 10459 10437 10416
10879 10881 10882 10883 10884 10884 10883 10883 10881 10879 10875 10872 10868 10862 10856 10850 10844 10837 10830 10824 10815 10806 10796 10784 10774 10762 10749 10735 10720 10707 10690 10672 10655 10641 10632 10610 10582 10554 10527 10500 10472 10446 10423 10396 10370
10875 10877 10878 10879 10880 10880 10880 10878 10876 10874 10871 10867 10862 10858 10852 10846 10839 10831 10823 10814 10805 10796 10784 10772 10763 10750 10737 10722 10704 10688 10671 10654 10639 10626 10605 10582 10553 10525 10499 10471 10449 10429 10404 10376 10352
10871 10873 10874 10875 10876 10875 10875 10873 10872 10869 10865 10862 10857 10851 10845 10838 10830 10823 10815 10808 10800 10790 10779 10766 10752 10738 10724 10708 10693 10674 10656 10634 10616 10589 10575 10567 10533 10500 10479 10454 10431 10410 10382 10360 10337
10866 10868 10869 10871 10871 10870 10869 10867 10866 10863 10860 10856 10851 10845 10838 10831 10824 10816 10807 10799 10789 10779 10767 10755 10741 10725 10710 10694 10675 10657 10640 10619 10598 10571 10547 10526 10505 10472 10445 10417 10385 10359 10339 10323 10309
10861 10863 10864 10865 10865 10864 10863 10861 10859 10855 10852 10849 10844 10838 10831 10824 10816 10808 10799 10788 10778 10769 10756 10742 10729 10715 10699 10687 10664 10643 10620 10596 10577 10564 10536 10513 10492 10450 10415 10386 10355 10336 10315 10298 10282
10856 10858 10859 10859 10859 10857 10855 10852 10850 10848 10846 10842 10836 10830 10823 10816 10809 10799 10789 10779 10768 10758 10746 10733 10718 10703 10686 10675 10652 10624 10605 10583 10560 10542 10518 10486 10460 10421 10393 10366 10337 10316 10297 10279 10265
10849 10851 10853 10854 10852 10850 10848 10846 10843 10841 10838 10834 10828 10821 10815 10807 10800 10791 10781 10771 10758 10746 10735 10722 10704 10684 10669 10655 10634 10611 10591 10569 10547 10531 10507 10471 10440 10410 10382 10349 10326 10303 10284 10267 10254
10843 10845 10845 10845 10844 10843 10841 10839 10836 10833 10830 10825 10819 10812 10805 10797 10789 10780 10771 10760 10750 10738 10725 10711 10696 10678 10661 10645 10620 10598 10579 10560 10535 10511 10478 10454 10416 10383 10357 10331 10312 10294 10277 10261 10245
10836 10837 10836 10837 10835 10835 10835 10832 10829 10826 10821 10816 10810 10802 10796 10788 10779 10771 10762 10753 10742 10731 10716 10701 10688 10672 10649 10633 10612 10586 10568 10545 10515 10499 10473 10432 10405 10371 10351 10323 10297 10279 10269 10255 10240
10828 10828 10829 10828 10828 10826 10826 10823 10820 10817 10813 10807 10801 10794 10786 10779 10769 10761 10752 10740 10731 10719 10704 10691 10676 10662 10643 10622 10600 10577 10555 10537 10511 10477 10450 10417 10383 10354 10334 10319 10295 10271 10257 10249 10238